TimePST,TemperatureF,Dew PointF,Humidity,Sea Level PressureIn,VisibilityMPH,Wind Direction,Wind SpeedMPH,Gust SpeedMPH,PrecipitationIn,Events,Conditions,WindDirDegrees,DateUTC
12:55 AM,55.9,55.0,97,30.03,10.0,SE,10.4,-,N/A,,Clear,140,2012-12-01 08:55:00
1:55 AM,55.9,54.0,93,30.03,10.0,SE,11.5,-,N/A,,Partly Cloudy,140,2012-12-01 09:55:00
2:55 AM,55.9,55.0,97,30.01,5.0,SE,12.7,-,N/A,,Mostly Cloudy,140,2012-12-01 10:55:00
3:55 AM,57.0,55.0,93,30.00,7.0,SSE,13.8,-,N/A,,Overcast,150,2012-12-01 11:55:00
4:55 AM,57.0,55.0,93,30.00,10.0,SSE,17.3,25.3,0.01,,Overcast,150,2012-12-01 12:55:00
5:55 AM,57.9,55.0,90,30.00,10.0,SE,17.3,24.2,N/A,,Mostly Cloudy,140,2012-12-01 13:55:00
6:55 AM,57.9,55.0,90,30.01,10.0,SSE,16.1,21.9,N/A,,Overcast,150,2012-12-01 14:55:00
7:55 AM,57.9,55.9,93,30.01,10.0,SSE,18.4,-,0.00,,Overcast,160,2012-12-01 15:55:00
8:55 AM,60.1,55.9,86,30.01,10.0,SSE,17.3,27.6,0.00,,Overcast,160,2012-12-01 16:55:00
9:55 AM,60.1,55.9,86,30.04,10.0,SSE,17.3,23.0,N/A,,Overcast,160,2012-12-01 17:55:00
10:55 AM,61.0,57.0,87,30.05,10.0,SSE,17.3,28.8,N/A,,Overcast,160,2012-12-01 18:55:00
11:55 AM,63.0,57.9,84,30.02,10.0,SSE,19.6,24.2,N/A,,Overcast,150,2012-12-01 19:55:00
12:55 PM,64.0,59.0,84,30.00,10.0,SSE,18.4,27.6,N/A,,Overcast,150,2012-12-01 20:55:00
1:55 PM,64.0,59.0,84,29.99,10.0,SE,16.1,-,N/A,,Scattered Clouds,140,2012-12-01 21:55:00
2:55 PM,63.0,59.0,87,29.99,10.0,SSE,15.0,18.4,N/A,,Overcast,150,2012-12-01 22:55:00
3:55 PM,62.1,59.0,90,29.98,10.0,SSE,16.1,-,N/A,,Mostly Cloudy,150,2012-12-01 23:55:00
4:55 PM,61.0,59.0,93,29.98,10.0,SSE,11.5,-,0.00,,Overcast,160,2012-12-02 00:55:00
5:41 PM,60.8,59.0,94,29.98,10.0,SSE,10.4,-,N/A,,Overcast,160,2012-12-02 01:41:00
5:55 PM,60.1,59.0,96,29.97,10.0,SSE,11.5,-,N/A,,Overcast,150,2012-12-02 01:55:00
6:55 PM,60.1,59.0,96,29.98,7.0,SE,10.4,-,0.00,Rain,Light Rain,140,2012-12-02 02:55:00
7:55 PM,60.1,57.9,93,29.97,8.0,SSE,13.8,-,0.03,,Overcast,150,2012-12-02 03:55:00
8:55 PM,59.0,57.9,96,29.93,4.0,SE,17.3,26.5,0.08,Rain,Rain,140,2012-12-02 04:55:00
9:45 PM,59.0,57.2,94,29.93,5.0,SE,18.4,25.3,N/A,Rain,Light Rain,140,2012-12-02 05:45:00
9:55 PM,59.0,57.9,96,29.93,8.0,SE,17.3,24.2,0.07,,Overcast,140,2012-12-02 05:55:00
10:00 PM,59.0,59.0,100,29.93,8.0,SE,18.4,23.0,N/A,,Overcast,140,2012-12-02 06:00:00
10:13 PM,59.0,59.0,100,29.93,6.0,SSE,17.3,23.0,N/A,,Overcast,150,2012-12-02 06:13:00
10:55 PM,60.1,59.0,96,29.94,5.0,SSE,15.0,-,0.01,Rain,Light Rain,150,2012-12-02 06:55:00
11:55 PM,59.0,57.9,96,29.92,8.0,SE,19.6,25.3,0.01,,Overcast,140,2012-12-02 07:55:00